Morgantown, WV

9:52 PM EST on January 18, 2018 (GMT -0500)
Morgantown Municipal-Hart

Weather History for KMGW - August, 2013

Change the Weather History Date:

Thursday, August 22, 2013

  Actual Average Record
Temperature  
Mean Temperature 73 °F 72 °F  
Max Temperature 81 °F 82 °F 100 °F (1893)
Min Temperature 65 °F 61 °F 42 °F (1982)
Degree Days  
Heating Degree Days 0 0  
Month to date heating degree days 8 0  
Since 1 June heating degree days 20 34  
Since 1 July heating degree days 9 3  
Cooling Degree Days 8 7  
Month to date cooling degree days 120 168  
Year to date cooling degree days 714 652  
Since 1 June cooling degree days 568 585  
Growing Degree Days 23 (Base 50)    
Moisture  
Dew Point 66 °F    
Average Humidity 82    
Maximum Humidity 97    
Minimum Humidity 67    
Precipitation  
Precipitation 0.14 in 0.11 in 1.56 in (1970)
Month to date precipitation 3.42 2.57  
Year to date precipitation 27.48 28.49  
Sea Level Pressure  
Sea Level Pressure 30.09 in    
Wind  
Wind Speed 3 mph (South)    
Max Wind Speed 12 mph    
Max Gust Speed 18 mph    
Visibility 8 miles    
Events Rain    
T = Trace of Precipitation, MM = Missing Value Source: NWS Daily Summary

Daily Weather History Graph

Daily Weather History Graph

Search for Another Location

Airport or City:

Trip Planner

Search our weather history database for the weather conditions in past years. The results will help you decide how hot, cold, wet, or windy it might be!

Date:

Astronomy

Aug. 22, 2013 Rise Set
Actual Time 6:38 AM EDT 8:05 PM EDT
Civil Twilight 6:10 AM EDT 8:33 PM EDT
Nautical Twilight 5:36 AM EDT 9:07 PM EDT
Astronomical Twilight 5:00 AM EDT 9:43 PM EDT
Moon 8:49 PM EDT (8/22) 8:25 AM EDT (8/22)
Length of Visible Light 14h 23m
Length of Day
13h 26m
Waning Gibbous, 97% of the Moon is Illuminated
Aug 22
Waning Gibbous
Aug 28
Last Quarter
Sep 5
New
Sep 12
First Quarter
Sep 19
Full

Hourly Weather History & Observations

Time (EDT) Temp. Heat Index Dew Point Humidity Pressure Visibility Wind Dir Wind Speed Gust Speed Precip Events Conditions
12:53 AM 66.9 °F - 64.0 °F 90% 30.14 in 10.0 mi SW 3.5 mph - N/A   Overcast
1:53 AM 66.9 °F - 64.9 °F 93% 30.14 in 10.0 mi East 3.5 mph - 0.00 in   Scattered Clouds
2:53 AM 66.9 °F - 64.9 °F 93% 30.13 in 8.0 mi Calm Calm - N/A   Mostly Cloudy
3:53 AM 66.9 °F - 64.9 °F 93% 30.12 in 9.0 mi Calm Calm - N/A   Overcast
4:53 AM 66.0 °F - 64.0 °F 93% 30.12 in 10.0 mi South 3.5 mph - N/A   Mostly Cloudy
5:53 AM 66.0 °F - 64.0 °F 93% 30.13 in 10.0 mi Calm Calm - N/A   Mostly Cloudy
6:53 AM 66.0 °F - 63.0 °F 90% 30.12 in 10.0 mi Calm Calm - N/A   Clear
7:53 AM 66.9 °F - 63.0 °F 87% 30.13 in 10.0 mi Calm Calm - N/A   Clear
8:53 AM 68.0 °F - 63.0 °F 84% 30.14 in 10.0 mi Variable 3.5 mph - N/A   Mostly Cloudy
9:28 AM 69.8 °F - 64.4 °F 83% 30.15 in 10.0 mi SSW 4.6 mph - N/A   Scattered Clouds
9:53 AM 71.1 °F - 63.0 °F 75% 30.14 in 10.0 mi Variable 3.5 mph - N/A   Partly Cloudy
10:53 AM 71.1 °F - 64.0 °F 78% 30.13 in 10.0 mi Variable 3.5 mph - N/A   Clear
11:53 AM 75.0 °F - 66.0 °F 73% 30.12 in 10.0 mi SSW 6.9 mph - N/A   Clear
12:53 PM 79.0 °F - 68.0 °F 69% 30.10 in 10.0 mi WSW 6.9 mph - N/A   Clear
1:22 PM 78.8 °F - 66.2 °F 65% 30.12 in 10.0 mi SW 6.9 mph - N/A   Mostly Cloudy
1:32 PM 77.0 °F - 68.0 °F 74% 30.12 in 10.0 mi Variable 6.9 mph - N/A   Scattered Clouds
1:39 PM 78.8 °F - 68.0 °F 69% 30.12 in 10.0 mi SSW 8.1 mph - N/A   Mostly Cloudy
1:48 PM 78.8 °F - 68.0 °F 69% 30.11 in 10.0 mi SW 8.1 mph - N/A   Scattered Clouds
1:53 PM 79.0 °F - 68.0 °F 69% 30.09 in 10.0 mi SW 6.9 mph - N/A   Mostly Cloudy
2:02 PM 78.8 °F - 68.0 °F 69% 30.11 in 10.0 mi Variable 5.8 mph - N/A   Scattered Clouds
2:53 PM 80.1 °F 82.7 °F 68.0 °F 67% 30.06 in 10.0 mi SSW 6.9 mph - N/A   Mostly Cloudy
3:53 PM 80.1 °F 82.7 °F 68.0 °F 67% 30.04 in 10.0 mi SW 8.1 mph - N/A   Partly Cloudy
4:26 PM 69.8 °F - 60.8 °F 73% 30.08 in 10.0 mi NNE 8.1 mph 18.4 mph N/A   Mostly Cloudy
4:32 PM 66.2 °F - 62.6 °F 88% 30.08 in 1.8 mi ENE 5.8 mph - 0.12 in Rain Heavy Rain
4:41 PM 68.0 °F - 62.6 °F 83% 30.08 in 3.0 mi Calm Calm - 0.13 in Rain Light Rain
4:51 PM 69.8 °F - 64.4 °F 83% 30.08 in 10.0 mi ESE 6.9 mph - 0.13 in   Overcast
4:53 PM 70.0 °F - 64.9 °F 84% 30.06 in 10.0 mi ESE 6.9 mph - 0.13 in   Mostly Cloudy
5:53 PM 72.0 °F - 66.9 °F 84% 30.04 in 10.0 mi Calm Calm - N/A   Scattered Clouds
6:53 PM 70.0 °F - 66.9 °F 90% 30.04 in 10.0 mi Calm Calm - 0.01 in   Scattered Clouds
7:53 PM 71.1 °F - 69.1 °F 93% 30.03 in 4.0 mi Calm Calm - N/A   Partly Cloudy
8:10 PM 69.8 °F - 69.8 °F 100% 30.04 in 2.0 mi Calm Calm - N/A   Clear
8:39 PM 69.8 °F - 68.0 °F 94% 30.04 in 3.0 mi Calm Calm - N/A   Clear
8:53 PM 69.1 °F - 68.0 °F 96% 30.02 in 2.0 mi Calm Calm - N/A   Clear
9:01 PM 69.8 °F - 68.0 °F 94% 30.05 in 1.8 mi Calm Calm - N/A   Partly Cloudy
9:14 PM 69.8 °F - 68.0 °F 94% 30.05 in 3.0 mi South 3.5 mph - N/A   Clear
9:31 PM 69.8 °F - 68.0 °F 94% 30.05 in 2.5 mi Calm Calm - N/A   Clear
9:39 PM 69.8 °F - 68.0 °F 94% 30.06 in 3.0 mi Calm Calm - N/A   Clear
9:53 PM 69.1 °F - 68.0 °F 96% 30.04 in 4.0 mi Calm Calm - N/A   Clear
10:53 PM 69.1 °F - 68.0 °F 96% 30.04 in 3.0 mi Calm Calm - N/A   Mostly Cloudy
11:53 PM 71.1 °F - 68.0 °F 90% 30.05 in 6.0 mi SSW 3.5 mph - N/A   Mostly Cloudy